Location: A�t Bou Chrif
(32.7193°N, 5.2385°W)
Time: 23:15:31
(UTC+00:00)

Cosmos 1900 - Pass Details

Date: 08 August 2020
Orbit: 680 x 742 km, 66.1° (Epoch: 18 September)

Event Time Altitude Azimuth Distance (km) Brightness Sun altitude
Rises 19:33:01 0° 198° (SSW) 3,036 7.6 -4.8°
Reaches altitude 10° 19:35:20 10° 195° (SSW) 2,131 6.7 -5.3°
Maximum altitude 19:40:08 65° 114° (ESE) 766 4.3 -6.2°
Drops below altitude 10° 19:45:02 10° 33° (NNE) 2,180 6.8 -7.1°
Sets 19:47:25 0° 30° (NNE) 3,113 7.6 -7.6°
